Weather History for KSTE - November, 2010

Change the Weather History Date:

Monday, November 29, 2010

  Actual Average Record
Temperature  
Mean Temperature 38 °F -  
Max Temperature 42 °F 32 °F 60 °F (1998)
Min Temperature 33 °F 18 °F -9 °F (1976)
Degree Days  
Heating Degree Days 28    
Moisture  
Dew Point 31 °F    
Average Humidity 75    
Maximum Humidity 93    
Minimum Humidity 61    
Precipitation  
Precipitation 0.05 in - - ()
Sea Level Pressure  
Sea Level Pressure 29.82 in    
Wind  
Wind Speed 8 mph (SE)    
Max Wind Speed 14 mph    
Max Gust Speed 18 mph    
Visibility 9 miles    
Events Rain    
Averages and records for this station are not official NWS values.
T = Trace of Precipitation, MM = Missing Value Source: NWS Daily Summary

Daily Weather History Graph

Daily Weather History Graph

Search for Another Location

Airport or City:

Trip Planner

Search our weather history database for the weather conditions in past years. The results will help you decide how hot, cold, wet, or windy it might be!

Date:

Astronomy

Nov. 29, 2010 Rise Set
Actual Time 7:12 AM CST 4:20 PM CST
Civil Twilight 6:39 AM CST 4:53 PM CST
Nautical Twilight 6:03 AM CST 5:29 PM CST
Astronomical Twilight 5:28 AM CST 6:04 PM CST
Moon 12:03 AM CST 12:34 PM CST
Length of Visible Light 10h 13m
Length of Day
9h 08m
Last Quarter, 40% of the Moon is Illuminated
Nov 29
Last Quarter
Dec 5
New
Dec 13
First Quarter
Dec 21
Full
Dec 27
Last Quarter

Hourly Weather History & Observations

Time (CST) Temp. Windchill Dew Point Humidity Pressure Visibility Wind Dir Wind Speed Gust Speed Precip Events Conditions
12:15 AM 33.8 °F 27.7 °F 28.4 °F 81% 29.96 in 10.0 mi SE 6.9 mph - N/A   Clear
12:35 AM 33.8 °F 26.4 °F 28.4 °F 81% 29.96 in 10.0 mi ESE 9.2 mph - N/A   Clear
12:55 AM 33.8 °F 27.0 °F 28.4 °F 81% 29.96 in 10.0 mi SE 8.1 mph - N/A   Clear
1:15 AM 33.8 °F 27.0 °F 28.4 °F 81% 29.95 in 10.0 mi ESE 8.1 mph - N/A   Clear
1:35 AM 35.6 °F 28.0 °F 28.4 °F 75% 29.95 in 10.0 mi SE 10.4 mph - N/A   Clear
1:55 AM 35.6 °F 28.0 °F 28.4 °F 75% 29.94 in 10.0 mi SE 10.4 mph 18.4 mph N/A   Clear
2:15 AM 35.6 °F 29.2 °F 28.4 °F 75% 29.94 in 10.0 mi SE 8.1 mph - N/A   Clear
2:35 AM 35.6 °F 28.6 °F 26.6 °F 70% 29.93 in 10.0 mi SE 9.2 mph - N/A   Clear
3:15 AM 35.6 °F 28.6 °F 26.6 °F 70% 29.92 in 10.0 mi SE 9.2 mph - N/A   Clear
3:35 AM 35.6 °F 29.2 °F 26.6 °F 70% 29.92 in 10.0 mi SE 8.1 mph - N/A   Clear
3:55 AM 35.6 °F 29.2 °F 26.6 °F 70% 29.91 in 10.0 mi SE 8.1 mph - N/A   Clear
4:15 AM 35.6 °F 29.2 °F 26.6 °F 70% 29.90 in 10.0 mi SE 8.1 mph - N/A   Clear
4:35 AM 35.6 °F 30.7 °F 28.4 °F 75% 29.89 in 10.0 mi SE 5.8 mph - N/A   Clear
4:55 AM 33.8 °F 27.7 °F 26.6 °F 75% 29.88 in 10.0 mi ESE 6.9 mph - N/A   Clear
5:15 AM 33.8 °F 28.6 °F 26.6 °F 75% 29.88 in 10.0 mi ESE 5.8 mph - N/A   Clear
5:35 AM 33.8 °F 28.6 °F 28.4 °F 81% 29.88 in 10.0 mi ESE 5.8 mph - N/A   Clear
5:55 AM 33.8 °F 28.6 °F 28.4 °F 81% 29.88 in 10.0 mi ESE 5.8 mph - N/A   Clear
6:15 AM 33.8 °F 27.7 °F 28.4 °F 81% 29.88 in 10.0 mi ESE 6.9 mph - N/A   Clear
6:35 AM 33.8 °F 28.6 °F 28.4 °F 81% 29.88 in 10.0 mi ESE 5.8 mph - N/A   Clear
6:55 AM 33.8 °F 29.6 °F 28.4 °F 81% 29.88 in 10.0 mi ESE 4.6 mph - N/A   Clear
7:15 AM 33.8 °F 29.6 °F 28.4 °F 81% 29.88 in 10.0 mi ESE 4.6 mph - N/A   Clear
7:35 AM 33.8 °F 28.6 °F 28.4 °F 81% 29.89 in 10.0 mi ESE 5.8 mph - N/A   Clear
7:55 AM 33.8 °F 28.6 °F 28.4 °F 81% 29.89 in 10.0 mi ESE 5.8 mph - N/A   Clear
8:15 AM 33.8 °F 28.6 °F 28.4 °F 81% 29.89 in 10.0 mi ESE 5.8 mph - N/A   Clear
8:35 AM 35.6 °F 29.2 °F 28.4 °F 75% 29.89 in 10.0 mi SE 8.1 mph - N/A   Clear
8:55 AM 35.6 °F 29.9 °F 28.4 °F 75% 29.89 in 10.0 mi SE 6.9 mph - N/A   Clear
9:15 AM 35.6 °F 28.6 °F 28.4 °F 75% 29.88 in 10.0 mi SE 9.2 mph - N/A   Clear
9:35 AM 37.4 °F 30.3 °F 28.4 °F 70% 29.87 in 10.0 mi SE 10.4 mph - N/A   Clear
9:55 AM 37.4 °F 30.8 °F 30.2 °F 75% 29.86 in 10.0 mi SE 9.2 mph - N/A   Clear
10:35 AM 39.2 °F 32.0 °F 30.2 °F 70% 29.85 in 10.0 mi SE 11.5 mph - N/A   Clear
10:55 AM 41.0 °F 35.8 °F 30.2 °F 65% 29.84 in 10.0 mi SSE 8.1 mph 16.1 mph N/A   Clear
11:15 AM 41.0 °F 35.8 °F 30.2 °F 65% 29.84 in 10.0 mi SE 8.1 mph - N/A   Scattered Clouds
11:35 AM 41.0 °F 35.2 °F 30.2 °F 65% 29.82 in 10.0 mi ESE 9.2 mph - N/A   Overcast
11:55 AM 41.0 °F 34.7 °F 30.2 °F 65% 29.82 in 10.0 mi SSE 10.4 mph - N/A   Overcast
12:15 PM 41.0 °F 36.4 °F 30.2 °F 65% 29.81 in 10.0 mi SE 6.9 mph - N/A   Overcast
12:35 PM 41.0 °F 35.8 °F 30.2 °F 65% 29.79 in 10.0 mi ESE 8.1 mph - N/A   Overcast
12:55 PM 42.8 °F 37.5 °F 30.2 °F 61% 29.79 in 10.0 mi SE 9.2 mph - N/A   Overcast
1:15 PM 42.8 °F 37.0 °F 32.0 °F 66% 29.78 in 10.0 mi East 10.4 mph - N/A   Overcast
1:35 PM 42.8 °F 37.0 °F 30.2 °F 61% 29.77 in 10.0 mi ESE 10.4 mph - N/A   Overcast
1:55 PM 42.8 °F 38.6 °F 32.0 °F 66% 29.75 in 10.0 mi East 6.9 mph - N/A   Overcast
2:15 PM 42.8 °F 38.6 °F 32.0 °F 66% 29.75 in 10.0 mi ESE 6.9 mph - N/A   Overcast
2:35 PM 42.8 °F 38.0 °F 32.0 °F 66% 29.74 in 10.0 mi ESE 8.1 mph - N/A   Mostly Cloudy
2:55 PM 42.8 °F 37.0 °F 32.0 °F 66% 29.75 in 10.0 mi ESE 10.4 mph - N/A   Scattered Clouds
3:35 PM 41.0 °F 35.2 °F 33.8 °F 76% 29.72 in 10.0 mi ESE 9.2 mph - N/A   Scattered Clouds
3:55 PM 42.8 °F 37.5 °F 33.8 °F 70% 29.74 in 10.0 mi SE 9.2 mph - N/A   Mostly Cloudy
4:15 PM 42.8 °F 38.6 °F 33.8 °F 70% 29.75 in 10.0 mi ESE 6.9 mph - N/A   Overcast
4:35 PM 42.8 °F 37.5 °F 33.8 °F 70% 29.73 in 10.0 mi ESE 9.2 mph - N/A   Overcast
4:55 PM 42.8 °F 38.0 °F 33.8 °F 70% 29.71 in 10.0 mi East 8.1 mph - N/A   Overcast
5:15 PM 42.8 °F 38.0 °F 33.8 °F 70% 29.72 in 10.0 mi SE 8.1 mph - N/A   Light Drizzle
5:35 PM 41.0 °F 35.2 °F 33.8 °F 76% 29.69 in 7.0 mi ESE 9.2 mph 18.4 mph N/A   Overcast
5:55 PM 41.0 °F 33.5 °F 35.6 °F 81% 29.67 in 10.0 mi ESE 13.8 mph - N/A   Overcast
6:15 PM 41.0 °F 34.7 °F 35.6 °F 81% 29.69 in 10.0 mi SE 10.4 mph 17.3 mph N/A   Overcast
6:35 PM 41.0 °F 34.7 °F 35.6 °F 81% 29.67 in 10.0 mi SE 10.4 mph - N/A   Overcast
6:55 PM 41.0 °F 34.7 °F 37.4 °F 87% 29.67 in 7.0 mi SE 10.4 mph 18.4 mph N/A   Drizzle
7:35 PM 41.0 °F 34.7 °F 39.2 °F 93% 29.66 in 4.0 mi SE 10.4 mph - 0.01 in Rain Light Rain
7:55 PM 41.0 °F 34.7 °F 39.2 °F 93% 29.65 in 4.0 mi SE 10.4 mph - 0.03 in Rain Light Rain
8:15 PM 41.0 °F 35.8 °F 39.2 °F 93% 29.65 in 4.0 mi SE 8.1 mph - 0.01 in Rain Rain
8:35 PM 41.0 °F 35.2 °F 39.2 °F 93% 29.63 in 4.0 mi SE 9.2 mph - 0.01 in   Overcast
8:55 PM 41.0 °F 35.2 °F 39.2 °F 93% 29.61 in 4.0 mi SE 9.2 mph - 0.02 in Rain Light Rain
9:15 PM 41.0 °F 34.7 °F 39.2 °F 93% 29.61 in 4.0 mi SE 10.4 mph - N/A Rain Light Rain
9:35 PM 41.0 °F 36.4 °F 39.2 °F 93% 29.60 in 4.0 mi SE 6.9 mph - 0.01 in Rain Light Rain
9:55 PM 41.0 °F 36.4 °F 39.2 °F 93% 29.60 in 2.5 mi SE 6.9 mph - 0.03 in Rain Light Rain
10:35 PM 41.0 °F 38.0 °F 39.2 °F 93% 29.57 in 2.5 mi ESE 4.6 mph - 0.07 in Rain Rain
10:55 PM 41.0 °F 39.0 °F 39.2 °F 93% 29.57 in 2.5 mi ESE 3.5 mph - 0.09 in Rain Rain
11:15 PM 41.0 °F 38.0 °F 39.2 °F 93% 29.57 in 2.0 mi ESE 4.6 mph - 0.02 in Rain Light Rain
11:35 PM 41.0 °F 39.0 °F 39.2 °F 93% 29.56 in 2.5 mi SE 3.5 mph - 0.02 in   Drizzle
11:55 PM 42.8 °F 41.1 °F 41.0 °F 93% 29.54 in 2.5 mi SE 3.5 mph - 0.04 in Rain Light Rain